STARLINK-11685, 63552

Orbit data source: Space-Track

STARLINK-11685, 63552 is a payload satellite owned by SpaceX/Seattle (US) in LEO that was launched on Sun, 13 Apr 2025 UTC via an FALCON 9 launch vehicle from the Air Force Eastern Test Range (AFETR). Payload-class satellites include a variety of spacecraft equipped with specific instruments for various scientific and technological missions. These include communications satellites like Starlink; space stations such as the ISS; scientific satellites like the Hubble; Earth observation satellites from companies like Planet Labs, Umbra, and HawkEye 360; GPS; miniature CubeSats for education and research; and military/defense satellites.

Loading next visibility...
Identifier
63552, 2025-075E
Orbit
LEO
Last TLE update
10 hours ago
Origin
Manufacturer
SpaceX/Seattle
Mission
Operational spacecraft
Bus & Motor
STARLINK V2M, Unknown motor
Mass
730 kg wet, ~700 kg dry
Launch date (UTC)
2025-04-13 (3 weeks ago)
Launch vehicle
FALCON 9
Launch site
Air Force Eastern Test Range (AFETR)
Object type
Payload
Rocket body
Debris
Shape & HBR
Unknown
Radar Cross Section
Large (>1 m²)

Expand to show TLE details & history

TLE from 10 hours ago
0 STARLINK-11685
1 63552U 25075E   25125.91667824 -.00066285  00000-0 -38057-3 0  9993
2 63552  42.9991 211.1860 0001652 276.7689 282.4808 15.77880249  4833
Epoch: 2025-05-05T22:00Z
Definitive object data (Epoch: 2025-05-05T22:00:00.999Z)
Latitude
-13.11221°
Longitude
-148.45923°
Altitude
338.59 km
Speed
7.707 km/s
True Right ascension
03h 02m 16s
True Declination
-13° 01' 54"
Sunlit
Object was in daylight at TLE epoch
Visualization TLE readout
Latitude
7.09579°
Longitude
22.28876°
Altitude
335.744 km
Speed
7.71 km/s
Apparent Right ascension
11h 46m 40s
Apparent Declination
-50° 17' 29"
Sunlit
Object is in full shadow
Visualization observer readout
Local Sidereal Time
15:47:30
Azimuth
214.935° SW
Elevation
-14.487°
Doppler factor
1
Orbital elements
Apogee altitude
339.545 km
Perigee altitude
337.326 km
Semi-major axis
6,716.572 km
Eccentricity
0.0001652
Inclination
42.9991°
RAAN
211.186°
Arg. of periapsis
276.7689°
True anomaly
282.46232°
Mean anomaly
282.4808°
Eccentric anomaly
282.47156°
Mean motion
3.94295 °/min
BSTAR
-0.00038057
Orbital period
91.3 mins
Loading maneuver chart data...
Loading SW <> Apogee altitude chart data...
Loading historical data...
Loading historical data...
Loading historical data...
Loading historical data...
Loading historical data...
Loading historical data...
Loading historical data...

STARLINK-11685 Visibility forecast

Observer location: undefined°, undefined°

Span
Click to sort rows by Start time (UTC) header in descending order
Start Az.
Max El. time (UTC)
Max El. Az.
Max El.
End time (UTC)
End Az.
5 mins2025-05-06 09:32:16.203Z232.506° WSW2025-05-06 09:35:16.203Z127.478° SE36.125°2025-05-06 09:37:16.203Z80.723° E
4 mins2025-05-06 11:09:16.203Z289.125° WNW2025-05-06 11:10:16.203Z324.692° NNW34.449°2025-05-06 11:13:16.203Z68.078° E
4 mins2025-05-06 12:45:16.203Z305.271° NW2025-05-06 12:46:16.203Z346.228° N36.765°2025-05-06 12:49:16.203Z87.8° E
|